Time,TemperatureF,DewpointF,PressureIn,WindDirection,WindDirectionDegrees,WindSpeedMPH,WindSpeedGustMPH,Humidity,HourlyPrecipIn,Conditions,Clouds,dailyrainin,SoftwareType,DateUTC
2013-01-21 00:00:00,13.3,9.9,30.50,NNW,337,1.0,1.0,86,0.00,,,0.00,Wunderground v.1.15,2013-01-21 06:00:00,
2013-01-21 00:10:00,13.7,10.0,30.50,NNW,329,1.0,2.0,85,0.00,,,0.00,Wunderground v.1.15,2013-01-21 06:10:00,
2013-01-21 00:15:00,13.9,10.2,30.49,NNW,334,1.0,3.0,85,0.00,,,0.00,Wunderground v.1.15,2013-01-21 06:15:00,
2013-01-21 00:25:00,14.1,10.2,30.49,NNE,15,2.0,3.0,84,0.00,,,0.00,Wunderground v.1.15,2013-01-21 06:25:00,
2013-01-21 00:35:00,14.4,10.2,30.49,NNW,335,3.0,4.0,83,0.00,,,0.00,Wunderground v.1.15,2013-01-21 06:35:00,
2013-01-21 00:45:00,14.5,10.3,30.49,North,355,3.0,5.0,83,0.00,,,0.00,Wunderground v.1.15,2013-01-21 06:45:00,
2013-01-21 00:55:00,14.7,10.5,30.49,North,352,4.0,4.0,83,0.00,,,0.00,Wunderground v.1.15,2013-01-21 06:55:00,
2013-01-21 01:00:00,14.8,10.6,30.49,NNW,344,4.0,5.0,83,0.00,,,0.00,Wunderground v.1.15,2013-01-21 07:00:00,
2013-01-21 01:10:00,14.8,10.6,30.49,NNW,338,4.0,4.0,83,0.00,,,0.00,Wunderground v.1.15,2013-01-21 07:10:00,
2013-01-21 01:20:00,14.8,10.6,30.49,North,352,6.0,7.0,83,0.00,,,0.00,Wunderground v.1.15,2013-01-21 07:20:00,
2013-01-21 01:25:00,14.7,10.5,30.49,NNE,16,6.0,7.0,83,0.00,,,0.00,Wunderground v.1.15,2013-01-21 07:25:00,
2013-01-21 01:35:00,14.6,10.4,30.49,North,357,6.0,8.0,83,0.00,,,0.00,Wunderground v.1.15,2013-01-21 07:35:00,
2013-01-21 01:45:00,14.7,10.2,30.49,NNE,21,6.0,8.0,82,0.00,,,0.00,Wunderground v.1.15,2013-01-21 07:45:00,
2013-01-21 01:55:00,14.5,9.2,30.49,NNW,342,7.0,8.0,79,0.00,,,0.00,Wunderground v.1.15,2013-01-21 07:55:00,
2013-01-21 02:00:00,14.4,8.8,30.49,NNW,335,7.0,7.0,78,0.00,,,0.00,Wunderground v.1.15,2013-01-21 08:00:00,
2013-01-21 02:10:00,14.4,9.1,30.49,NNE,13,7.0,7.0,79,0.00,,,0.00,Wunderground v.1.15,2013-01-21 08:10:00,
2013-01-21 02:20:00,14.3,9.0,30.50,NNW,340,6.0,6.0,79,0.00,,,0.00,Wunderground v.1.15,2013-01-21 08:20:00,
2013-01-21 02:30:00,14.2,8.6,30.50,North,352,6.0,6.0,78,0.00,,,0.00,Wunderground v.1.15,2013-01-21 08:30:00,
2013-01-21 02:35:00,14.1,8.8,30.50,NE,43,7.0,7.0,79,0.00,,,0.00,Wunderground v.1.15,2013-01-21 08:35:00,
2013-01-21 02:45:00,14.0,8.4,30.50,NW,325,7.0,8.0,78,0.00,,,0.00,Wunderground v.1.15,2013-01-21 08:45:00,
2013-01-21 02:55:00,13.7,7.5,30.50,NNE,23,8.0,9.0,76,0.00,,,0.00,Wunderground v.1.15,2013-01-21 08:55:00,
2013-01-21 03:00:00,13.4,7.0,30.50,NNE,13,9.0,9.0,75,0.00,,,0.00,Wunderground v.1.15,2013-01-21 09:00:00,
2013-01-21 03:10:00,12.8,5.2,30.51,NE,36,9.0,9.0,71,0.00,,,0.00,Wunderground v.1.15,2013-01-21 09:10:00,
2013-01-21 03:20:00,12.5,4.9,30.51,NW,316,9.0,9.0,71,0.00,,,0.00,Wunderground v.1.15,2013-01-21 09:20:00,
2013-01-21 03:30:00,12.3,4.7,30.51,NNE,20,9.0,9.0,71,0.00,,,0.00,Wunderground v.1.15,2013-01-21 09:30:00,
2013-01-21 03:45:00,11.7,3.5,30.50,NNW,335,9.0,10.0,69,0.00,,,0.00,Wunderground v.1.15,2013-01-21 09:45:00,
2013-01-21 03:50:00,11.6,3.7,30.50,NNW,332,9.0,9.0,70,0.00,,,0.00,Wunderground v.1.15,2013-01-21 09:50:00,
2013-01-21 04:00:00,11.4,2.9,30.50,NW,316,9.0,9.0,68,0.00,,,0.00,Wunderground v.1.15,2013-01-21 10:00:00,
2013-01-21 04:10:00,11.4,3.5,30.50,North,352,9.0,9.0,70,0.00,,,0.00,Wunderground v.1.15,2013-01-21 10:10:00,
2013-01-21 04:15:00,11.4,2.9,30.50,NNW,328,8.0,12.0,68,0.00,,,0.00,Wunderground v.1.15,2013-01-21 10:15:00,
2013-01-21 04:25:00,11.3,2.1,30.50,NNW,330,9.0,10.0,66,0.00,,,0.00,Wunderground v.1.15,2013-01-21 10:25:00,
2013-01-21 04:35:00,11.2,1.0,30.50,NNW,339,11.0,15.0,63,0.00,,,0.00,Wunderground v.1.15,2013-01-21 10:35:00,
2013-01-21 04:45:00,11.1,1.6,30.50,NNW,333,12.0,14.0,65,0.00,,,0.00,Wunderground v.1.15,2013-01-21 10:45:00,
2013-01-21 04:55:00,10.9,0.1,30.49,NW,323,11.0,15.0,61,0.00,,,0.00,Wunderground v.1.15,2013-01-21 10:55:00,
2013-01-21 05:00:00,10.8,-0.7,30.49,NNW,342,11.0,11.0,59,0.00,,,0.00,Wunderground v.1.15,2013-01-21 11:00:00,
2013-01-21 05:10:00,10.6,-0.6,30.49,North,10,11.0,11.0,60,0.00,,,0.00,Wunderground v.1.15,2013-01-21 11:10:00,
2013-01-21 05:20:00,10.3,-1.6,30.50,North,360,11.0,11.0,58,0.00,,,0.00,Wunderground v.1.15,2013-01-21 11:20:00,
2013-01-21 05:30:00,10.0,-1.9,30.50,NNW,335,10.0,10.0,58,0.00,,,0.00,Wunderground v.1.15,2013-01-21 11:30:00,
2013-01-21 05:40:00,9.8,-2.0,30.50,NNE,18,10.0,10.0,58,0.00,,,0.00,Wunderground v.1.15,2013-01-21 11:40:00,
2013-01-21 05:50:00,9.3,-2.5,30.50,NNW,345,9.0,9.0,58,0.00,,,0.00,Wunderground v.1.15,2013-01-21 11:50:00,
2013-01-21 06:00:00,9.0,-2.4,30.50,North,349,8.0,8.0,59,0.00,,,0.00,Wunderground v.1.15,2013-01-21 12:00:00,
2013-01-21 06:10:00,8.7,-2.7,30.51,NNW,342,9.0,9.0,59,0.00,,,0.00,Wunderground v.1.15,2013-01-21 12:10:00,
2013-01-21 06:15:00,8.7,-2.4,30.50,NNW,345,8.0,9.0,60,0.00,,,0.00,Wunderground v.1.15,2013-01-21 12:15:00,
2013-01-21 06:25:00,8.7,-2.7,30.51,NNW,339,7.0,7.0,59,0.00,,,0.00,Wunderground v.1.15,2013-01-21 12:25:00,
2013-01-21 06:35:00,8.4,-3.7,30.50,North,349,8.0,11.0,57,0.00,,,0.00,Wunderground v.1.15,2013-01-21 12:35:00,
2013-01-21 06:45:00,8.2,-3.9,30.51,NNE,28,8.0,11.0,57,0.00,,,0.00,Wunderground v.1.15,2013-01-21 12:45:00,
2013-01-21 06:55:00,8.0,-4.5,30.52,North,9,9.0,12.0,56,0.00,,,0.00,Wunderground v.1.15,2013-01-21 12:55:00,
2013-01-21 07:00:00,7.7,-5.9,30.52,North,354,9.0,18.0,53,0.00,,,0.00,Wunderground v.1.15,2013-01-21 13:00:00,
2013-01-21 07:10:00,7.5,-5.7,30.52,NNE,21,10.0,13.0,54,0.00,,,0.00,Wunderground v.1.15,2013-01-21 13:10:00,
2013-01-21 07:15:00,7.4,-5.4,30.51,NNW,337,9.0,13.0,55,0.00,,,0.00,Wunderground v.1.15,2013-01-21 13:15:00,
2013-01-21 07:25:00,7.2,-5.2,30.52,NNE,18,9.0,10.0,56,0.00,,,0.00,Wunderground v.1.15,2013-01-21 13:25:00,
2013-01-21 07:30:00,6.9,-6.3,30.52,NNW,344,9.0,10.0,54,0.00,,,0.00,Wunderground v.1.15,2013-01-21 13:30:00,
2013-01-21 07:40:00,6.9,-5.5,30.51,NNW,338,7.0,8.0,56,0.00,,,0.00,Wunderground v.1.15,2013-01-21 13:40:00,
2013-01-21 07:45:00,6.6,-5.8,30.52,North,10,8.0,10.0,56,0.00,,,0.00,Wunderground v.1.15,2013-01-21 13:45:00,
2013-01-21 07:55:00,6.2,-6.9,30.52,NNE,15,8.0,12.0,54,0.00,,,0.00,Wunderground v.1.15,2013-01-21 13:55:00,
2013-01-21 08:00:00,6.2,-6.2,30.52,NNW,340,8.0,8.0,56,0.00,,,0.00,Wunderground v.1.15,2013-01-21 14:00:00,
2013-01-21 08:10:00,6.1,-6.3,30.52,NNE,19,7.0,7.0,56,0.00,,,0.00,Wunderground v.1.15,2013-01-21 14:10:00,
2013-01-21 08:20:00,5.9,-6.8,30.53,North,356,8.0,8.0,55,0.00,,,0.00,Wunderground v.1.15,2013-01-21 14:20:00,
2013-01-21 08:30:00,6.1,-6.3,30.53,NNE,20,6.0,8.0,56,0.00,,,0.00,Wunderground v.1.15,2013-01-21 14:30:00,
2013-01-21 08:40:00,6.2,-5.8,30.53,NNE,32,6.0,8.0,57,0.00,,,0.00,Wunderground v.1.15,2013-01-21 14:40:00,
2013-01-21 08:50:00,6.1,-5.9,30.53,NNE,27,6.0,12.0,57,0.00,,,0.00,Wunderground v.1.15,2013-01-21 14:50:00,
2013-01-21 09:00:00,6.1,-5.5,30.53,NNE,23,6.0,6.0,58,0.00,,,0.00,Wunderground v.1.15,2013-01-21 15:00:00,
2013-01-21 09:10:00,6.1,-6.3,30.54,NNE,20,7.0,7.0,56,0.00,,,0.00,Wunderground v.1.15,2013-01-21 15:10:00,
2013-01-21 09:20:00,6.3,-5.7,30.53,NNW,333,7.0,7.0,57,0.00,,,0.00,Wunderground v.1.15,2013-01-21 15:20:00,
2013-01-21 09:25:00,6.3,-5.3,30.54,NNW,344,7.0,7.0,58,0.00,,,0.00,Wunderground v.1.15,2013-01-21 15:25:00,
2013-01-21 09:35:00,6.3,-5.0,30.54,North,358,7.0,7.0,59,0.00,,,0.00,Wunderground v.1.15,2013-01-21 15:35:00,
2013-01-21 09:40:00,6.5,-4.8,30.54,NNW,327,6.0,9.0,59,0.00,,,0.00,Wunderground v.1.15,2013-01-21 15:40:00,
2013-01-21 09:50:00,6.5,-5.5,30.55,NNW,335,8.0,10.0,57,0.00,,,0.00,Wunderground v.1.15,2013-01-21 15:50:00,
2013-01-21 10:00:00,6.4,-6.0,30.55,NNE,13,7.0,7.0,56,0.00,,,0.00,Wunderground v.1.15,2013-01-21 16:00:00,
2013-01-21 10:10:00,6.2,-5.8,30.55,NW,322,7.0,7.0,57,0.00,,,0.00,Wunderground v.1.15,2013-01-21 16:10:00,
2013-01-21 10:20:00,6.2,-5.8,30.55,North,10,6.0,6.0,57,0.00,,,0.00,Wunderground v.1.15,2013-01-21 16:20:00,
2013-01-21 10:30:00,6.3,-5.3,30.55,North,359,6.0,6.0,58,0.00,,,0.00,Wunderground v.1.15,2013-01-21 16:30:00,
2013-01-21 10:40:00,6.1,-5.9,30.55,NW,325,5.0,5.0,57,0.00,,,0.00,Wunderground v.1.15,2013-01-21 16:40:00,
2013-01-21 10:50:00,6.2,-5.1,30.55,North,5,5.0,5.0,59,0.00,,,0.00,Wunderground v.1.15,2013-01-21 16:50:00,
2013-01-21 11:00:00,6.4,-6.0,30.55,NW,323,5.0,5.0,56,0.00,,,0.00,Wunderground v.1.15,2013-01-21 17:00:00,
2013-01-21 11:10:00,6.6,-5.4,30.55,NNE,13,5.0,5.0,57,0.00,,,0.00,Wunderground v.1.15,2013-01-21 17:10:00,
2013-01-21 11:15:00,6.7,-5.0,30.55,NE,52,5.0,6.0,58,0.00,,,0.00,Wunderground v.1.15,2013-01-21 17:15:00,
2013-01-21 11:25:00,7.0,-5.0,30.54,NNW,339,4.0,5.0,57,0.00,,,0.00,Wunderground v.1.15,2013-01-21 17:25:00,
2013-01-21 11:35:00,7.2,-5.2,30.54,North,11,5.0,6.0,56,0.00,,,0.00,Wunderground v.1.15,2013-01-21 17:35:00,
2013-01-21 11:45:00,7.5,-4.6,30.54,NNW,338,6.0,7.0,57,0.00,,,0.00,Wunderground v.1.15,2013-01-21 17:45:00,
2013-01-21 11:55:00,7.6,-5.2,30.53,NNW,330,6.0,6.0,55,0.00,,,0.00,Wunderground v.1.15,2013-01-21 17:55:00,
2013-01-21 12:00:00,7.6,-4.9,30.53,NNW,339,6.0,6.0,56,0.00,,,0.00,Wunderground v.1.15,2013-01-21 18:00:00,
2013-01-21 12:05:00,7.9,-4.6,30.53,WNW,288,5.0,6.0,56,0.00,,,0.00,Wunderground v.1.15,2013-01-21 18:05:00,
2013-01-21 12:15:00,8.0,-4.1,30.53,NNW,342,5.0,9.0,57,0.00,,,0.00,Wunderground v.1.15,2013-01-21 18:15:00,
2013-01-21 12:25:00,8.1,-4.0,30.52,North,349,5.0,5.0,57,0.00,,,0.00,Wunderground v.1.15,2013-01-21 18:25:00,
2013-01-21 12:30:00,8.2,-4.7,30.52,West,273,4.0,5.0,55,0.00,,,0.00,Wunderground v.1.15,2013-01-21 18:30:00,
2013-01-21 12:40:00,8.3,-4.2,30.52,WNW,288,5.0,5.0,56,0.00,,,0.00,Wunderground v.1.15,2013-01-21 18:40:00,
2013-01-21 12:50:00,8.4,-4.5,30.51,NW,316,5.0,5.0,55,0.00,,,0.00,Wunderground v.1.15,2013-01-21 18:50:00,
2013-01-21 13:00:00,8.8,-3.7,30.50,NNW,333,5.0,5.0,56,0.00,,,0.00,Wunderground v.1.15,2013-01-21 19:00:00,
2013-01-21 13:10:00,9.0,-3.9,30.51,NNW,330,5.0,5.0,55,0.00,,,0.00,Wunderground v.1.15,2013-01-21 19:10:00,
2013-01-21 13:15:00,9.0,-4.7,30.50,NW,307,5.0,6.0,53,0.00,,,0.00,Wunderground v.1.15,2013-01-21 19:15:00,
2013-01-21 13:25:00,9.0,-4.7,30.49,NW,316,5.0,6.0,53,0.00,,,0.00,Wunderground v.1.15,2013-01-21 19:25:00,
2013-01-21 13:35:00,9.0,-4.7,30.49,NNW,331,6.0,6.0,53,0.00,,,0.00,Wunderground v.1.15,2013-01-21 19:35:00,
2013-01-21 13:45:00,9.3,-4.0,30.49,NNW,348,6.0,6.0,54,0.00,,,0.00,Wunderground v.1.15,2013-01-21 19:45:00,
2013-01-21 13:55:00,9.8,-3.2,30.49,NW,325,6.0,6.0,55,0.00,,,0.00,Wunderground v.1.15,2013-01-21 19:55:00,
2013-01-21 14:00:00,9.9,-3.5,30.49,NW,325,5.0,5.0,54,0.00,,,0.00,Wunderground v.1.15,2013-01-21 20:00:00,
2013-01-21 14:10:00,9.8,-3.5,30.48,North,1,6.0,6.0,54,0.00,,,0.00,Wunderground v.1.15,2013-01-21 20:10:00,
2013-01-21 14:20:00,10.2,-2.8,30.48,NNW,343,4.0,7.0,55,0.00,,,0.00,Wunderground v.1.15,2013-01-21 20:20:00,
2013-01-21 14:30:00,10.6,-2.8,30.49,WNW,298,4.0,4.0,54,0.00,,,0.00,Wunderground v.1.15,2013-01-21 20:30:00,
2013-01-21 14:40:00,10.3,-3.1,30.49,NW,326,4.0,4.0,54,0.00,,,0.00,Wunderground v.1.15,2013-01-21 20:40:00,
2013-01-21 14:50:00,10.4,-3.0,30.48,NNW,333,4.0,5.0,54,0.00,,,0.00,Wunderground v.1.15,2013-01-21 20:50:00,
2013-01-21 15:00:00,11.0,-2.4,30.48,NNW,332,4.0,6.0,54,0.00,,,0.00,Wunderground v.1.15,2013-01-21 21:00:00,
2013-01-21 15:10:00,11.3,-1.8,30.48,NW,323,5.0,5.0,55,0.00,,,0.00,Wunderground v.1.15,2013-01-21 21:10:00,
2013-01-21 15:20:00,11.7,-1.8,30.48,North,350,5.0,5.0,54,0.00,,,0.00,Wunderground v.1.15,2013-01-21 21:20:00,
2013-01-21 15:30:00,11.8,-1.3,30.47,NW,316,4.0,6.0,55,0.00,,,0.00,Wunderground v.1.15,2013-01-21 21:30:00,
2013-01-21 15:40:00,11.7,-1.4,30.47,NNW,345,4.0,4.0,55,0.00,,,0.00,Wunderground v.1.15,2013-01-21 21:40:00,
2013-01-21 15:50:00,11.8,-1.7,30.48,West,276,3.0,3.0,54,0.00,,,0.00,Wunderground v.1.15,2013-01-21 21:50:00,
2013-01-21 16:00:00,11.9,-1.2,30.47,NNW,338,3.0,3.0,55,0.00,,,0.00,Wunderground v.1.15,2013-01-21 22:00:00,
2013-01-21 16:10:00,12.1,-1.4,30.47,NNW,344,3.0,4.0,54,0.00,,,0.00,Wunderground v.1.15,2013-01-21 22:10:00,
2013-01-21 16:15:00,12.1,-1.4,30.47,NNW,334,3.0,4.0,54,0.00,,,0.00,Wunderground v.1.15,2013-01-21 22:15:00,
2013-01-21 16:25:00,12.4,-0.3,30.47,North,352,4.0,4.0,56,0.00,,,0.00,Wunderground v.1.15,2013-01-21 22:25:00,
2013-01-21 16:35:00,12.4,-0.7,30.47,NW,323,3.0,4.0,55,0.00,,,0.00,Wunderground v.1.15,2013-01-21 22:35:00,
2013-01-21 16:45:00,12.5,-1.0,30.47,North,358,4.0,5.0,54,0.00,,,0.00,Wunderground v.1.15,2013-01-21 22:45:00,
2013-01-21 16:55:00,12.5,-0.6,30.46,NNE,23,4.0,5.0,55,0.00,,,0.00,Wunderground v.1.15,2013-01-21 22:55:00,
2013-01-21 17:00:00,12.5,-0.2,30.46,North,6,3.0,3.0,56,0.00,,,0.00,Wunderground v.1.15,2013-01-21 23:00:00,
2013-01-21 17:10:00,12.4,-0.7,30.45,North,9,2.0,3.0,55,0.00,,,0.00,Wunderground v.1.15,2013-01-21 23:10:00,
2013-01-21 17:20:00,12.3,-1.2,30.46,NNE,13,2.0,2.0,54,0.00,,,0.00,Wunderground v.1.15,2013-01-21 23:20:00,
2013-01-21 17:30:00,12.5,-0.2,30.45,NNW,329,1.0,3.0,56,0.00,,,0.00,Wunderground v.1.15,2013-01-21 23:30:00,
2013-01-21 17:40:00,12.8,0.0,30.45,NW,312,2.0,2.0,56,0.00,,,0.00,Wunderground v.1.15,2013-01-21 23:40:00,
2013-01-21 17:50:00,12.9,0.1,30.45,NNW,338,3.0,4.0,56,0.00,,,0.00,Wunderground v.1.15,2013-01-21 23:50:00,
2013-01-21 17:55:00,12.9,0.5,30.45,NW,307,3.0,4.0,57,0.00,,,0.00,Wunderground v.1.15,2013-01-21 23:55:00,
2013-01-21 18:00:00,12.9,0.1,30.45,WNW,300,3.0,3.0,56,0.00,,,0.00,Wunderground v.1.15,2013-01-22 00:00:00,
2013-01-21 18:10:00,12.9,0.1,30.45,NW,313,2.0,2.0,56,0.00,,,0.00,Wunderground v.1.15,2013-01-22 00:10:00,
2013-01-21 18:15:00,12.9,0.5,30.45,NNW,332,3.0,3.0,57,0.00,,,0.00,Wunderground v.1.15,2013-01-22 00:15:00,
2013-01-21 18:25:00,13.0,1.0,30.45,NNW,327,2.0,3.0,58,0.00,,,0.00,Wunderground v.1.15,2013-01-22 00:25:00,
2013-01-21 18:35:00,12.9,0.1,30.45,NNW,348,3.0,5.0,56,0.00,,,0.00,Wunderground v.1.15,2013-01-22 00:35:00,
2013-01-21 18:45:00,12.7,-0.1,30.46,North,5,4.0,5.0,56,0.00,,,0.00,Wunderground v.1.15,2013-01-22 00:45:00,
2013-01-21 18:55:00,12.5,-0.2,30.46,NNE,22,5.0,6.0,56,0.00,,,0.00,Wunderground v.1.15,2013-01-22 00:55:00,
2013-01-21 19:00:00,12.5,0.1,30.46,NNE,13,4.0,4.0,57,0.00,,,0.00,Wunderground v.1.15,2013-01-22 01:00:00,
2013-01-21 19:10:00,12.4,0.0,30.46,NE,37,3.0,3.0,57,0.00,,,0.00,Wunderground v.1.15,2013-01-22 01:10:00,
2013-01-21 19:20:00,12.3,0.3,30.46,NNE,15,3.0,4.0,58,0.00,,,0.00,Wunderground v.1.15,2013-01-22 01:20:00,
2013-01-21 19:30:00,12.1,0.5,30.46,NNE,24,4.0,6.0,59,0.00,,,0.00,Wunderground v.1.15,2013-01-22 01:30:00,
2013-01-21 19:40:00,12.0,0.8,30.46,NNE,25,4.0,4.0,60,0.00,,,0.00,Wunderground v.1.15,2013-01-22 01:40:00,
2013-01-21 19:50:00,11.9,0.7,30.46,NE,36,4.0,4.0,60,0.00,,,0.00,Wunderground v.1.15,2013-01-22 01:50:00,
2013-01-21 20:00:00,11.9,0.7,30.46,NNE,32,3.0,4.0,60,0.00,,,0.00,Wunderground v.1.15,2013-01-22 02:00:00,
2013-01-21 20:10:00,11.8,0.9,30.46,NE,56,4.0,4.0,61,0.00,,,0.00,Wunderground v.1.15,2013-01-22 02:10:00,
2013-01-21 20:15:00,11.8,0.6,30.46,NE,43,3.0,4.0,60,0.00,,,0.00,Wunderground v.1.15,2013-01-22 02:15:00,
2013-01-21 20:25:00,11.8,0.6,30.46,NE,36,3.0,3.0,60,0.00,,,0.00,Wunderground v.1.15,2013-01-22 02:25:00,
2013-01-21 20:35:00,11.9,0.7,30.46,NE,37,4.0,5.0,60,0.00,,,0.00,Wunderground v.1.15,2013-01-22 02:35:00,
2013-01-21 20:45:00,11.9,0.7,30.46,NNE,20,3.0,5.0,60,0.00,,,0.00,Wunderground v.1.15,2013-01-22 02:45:00,
2013-01-21 20:55:00,11.9,1.0,30.46,NE,37,2.0,3.0,61,0.00,,,0.00,Wunderground v.1.15,2013-01-22 02:55:00,
2013-01-21 21:00:00,11.8,0.9,30.46,NNE,33,2.0,2.0,61,0.00,,,0.00,Wunderground v.1.15,2013-01-22 03:00:00,
2013-01-21 21:10:00,11.7,0.5,30.46,NE,44,3.0,3.0,60,0.00,,,0.00,Wunderground v.1.15,2013-01-22 03:10:00,
2013-01-21 21:20:00,11.4,0.2,30.45,NE,44,2.0,2.0,60,0.00,,,0.00,Wunderground v.1.15,2013-01-22 03:20:00,
2013-01-21 21:30:00,11.0,0.5,30.45,NNE,23,2.0,2.0,62,0.00,,,0.00,Wunderground v.1.15,2013-01-22 03:30:00,
2013-01-21 21:35:00,10.9,0.8,30.46,NNE,13,2.0,2.0,63,0.00,,,0.00,Wunderground v.1.15,2013-01-22 03:35:00,
2013-01-21 21:40:00,10.9,0.8,30.46,NE,56,1.0,3.0,63,0.00,,,0.00,Wunderground v.1.15,2013-01-22 03:40:00,
2013-01-21 21:50:00,10.5,0.7,30.46,ENE,78,1.0,1.0,64,0.00,,,0.00,Wunderground v.1.15,2013-01-22 03:50:00,
2013-01-21 22:00:00,10.4,1.3,30.45,NE,55,1.0,3.0,66,0.00,,,0.00,Wunderground v.1.15,2013-01-22 04:00:00,
2013-01-21 22:10:00,10.6,1.5,30.45,ENE,58,2.0,2.0,66,0.00,,,0.00,Wunderground v.1.15,2013-01-22 04:10:00,
2013-01-21 22:15:00,10.7,1.6,30.45,NE,56,1.0,2.0,66,0.00,,,0.00,Wunderground v.1.15,2013-01-22 04:15:00,
2013-01-21 22:20:00,10.7,1.6,30.46,SE,142,1.0,1.0,66,0.00,,,0.00,Wunderground v.1.15,2013-01-22 04:20:00,
2013-01-21 22:30:00,10.6,1.8,30.46,ESE,122,0.0,0.0,67,0.00,,,0.00,Wunderground v.1.15,2013-01-22 04:30:00,
2013-01-21 22:40:00,10.6,1.8,30.46,ESE,121,0.0,1.0,67,0.00,,,0.00,Wunderground v.1.15,2013-01-22 04:40:00,
2013-01-21 22:50:00,10.6,2.4,30.46,ESE,120,0.0,0.0,69,0.00,,,0.00,Wunderground v.1.15,2013-01-22 04:50:00,
2013-01-21 23:00:00,10.7,2.2,30.46,ESE,120,0.0,1.0,68,0.00,,,0.00,Wunderground v.1.15,2013-01-22 05:00:00,
2013-01-21 23:05:00,10.7,1.9,30.45,SE,128,1.0,1.0,67,0.00,,,0.00,Wunderground v.1.15,2013-01-22 05:05:00,
2013-01-21 23:15:00,10.9,1.8,30.46,East,101,1.0,2.0,66,0.00,,,0.00,Wunderground v.1.15,2013-01-22 05:15:00,
2013-01-21 23:20:00,11.0,1.5,30.46,ESE,108,1.0,1.0,65,0.00,,,0.00,Wunderground v.1.15,2013-01-22 05:20:00,
2013-01-21 23:30:00,11.1,1.3,30.46,ENE,57,1.0,4.0,64,0.00,,,0.00,Wunderground v.1.15,2013-01-22 05:30:00,
2013-01-21 23:40:00,11.1,1.3,30.46,ESE,120,2.0,2.0,64,0.00,,,0.00,Wunderground v.1.15,2013-01-22 05:40:00,
2013-01-21 23:50:00,11.1,1.3,30.46,SE,136,1.0,1.0,64,0.00,,,0.00,Wunderground v.1.15,2013-01-22 05:50:00,